SPHEREX DEB, 63332

Orbit data source: Space-Track

SPHEREX DEB, 63332 is space debris in SSO originally from a launch on Wed, 12 Mar 2025 UTC launched from the Air Force Western Test Range (AFWTR). Debris objects in space refer to the collection of defunct objects orbiting the Earth. Examples of debris include non-operational satellites, rocket bodies, and fragments generated from explosions, collisions, or faulty payload assembly.

Loading next visibility...
Identifier
63332, 2025-047F
Orbit
SSO
Country
Flag of USUS
Related business
Manufacturer
BAEB
Mission
Spacecraft
Bus & Motor
SPHEREX, Unknown motor
Mass
~5 kg wet, ~5 kg dry
Launch date (UTC)
2025-03-12 (1 year ago)
Launch vehicle
Unknown
Launch site
Air Force Western Test Range (AFWTR)
Object type
Payload
Rocket body
Debris
Shape & HBR
Cyl, 0.2 m
Radar Cross Section
0.188 m², Medium (>0.1 m² and < 1m²)

Expand to show TLE details & history
Last TLE update: 21 hours ago

TLE from 21 hours ago
0 SPHEREX DEB
1 63332U 25047F   26171.08144043  .00005630  00000-0  73360-3 0  9992
2 63332  97.9520 358.4038 0007543 154.6354 205.5230 14.80959229 67547
Epoch: 2026-06-20T01:57Z
TLE epoch observation values (Epoch: 2026-06-20T01:57:16.453Z)
Latitude
Longitude
60.78406°
Altitude
634.089 km
Speed
7.539 km/s
True Right ascension
23h 53m 36s
True Declination
0° 00' 00"
Sunlit
Object was in daylight at epoch
Visualization orbit readout
Latitude
Unknown
Longitude
Unknown
Altitude
Unknown
Speed
Unknown
Apparent Right ascension
Unknown
Apparent Declination
Unknown
Sunlit
N/A
Visualization observer readout
Local Sidereal Time
10:20:17
Azimuth
Unknown
Elevation
Unknown
Doppler factor
Unknown
Orbital elements
Apogee altitude
628.621 km
Perigee altitude
618.059 km
Semi-major axis
7,001.477 km
Eccentricity
0.00075
Inclination
97.952°
RAAN
358.4038°
Arg. of periapsis
154.6354°
True anomaly
205.48579°
Mean anomaly
205.523°
Eccentric anomaly
205.50439°
Mean motion
3.70475 °/min
Orbital period
97.17 mins
BSTAR
0.0007336
Loading maneuver chart data...
Computing Atmospheric mass density...
Loading historical data...
Loading historical data...
Loading historical data...
Loading historical data...
Loading historical data...
Loading historical data...
Loading historical data...
Other satellites on launch #47 in the year 2025 (2025-03-12 UTC)

Documentation

Showing up to 5 results
|